Weather History for KPKD - July, 2013

Change the Weather History Date:

Monday, July 8, 2013

  Actual Average Record
Temperature  
Mean Temperature 68 °F -  
Max Temperature 84 °F 81 °F 93 °F (1948)
Min Temperature 55 °F 56 °F 42 °F (1958)
Cooling Degree Days 4    
Growing Degree Days 18 (Base 50)    
Moisture  
Dew Point 59 °F    
Average Humidity 67    
Maximum Humidity 97    
Minimum Humidity 42    
Precipitation  
Precipitation 0.00 in - - ()
Sea Level Pressure  
Sea Level Pressure 29.98 in    
Wind  
Wind Speed 2 mph (SSE)    
Max Wind Speed 6 mph    
Max Gust Speed -    
Visibility 10 miles    
Events      
Averages and records for this station are not official NWS values.
T = Trace of Precipitation, MM = Missing Value Source: NWS Daily Summary

Daily Weather History Graph

Daily Weather History Graph

Search for Another Location

Airport or City:

Trip Planner

Search our weather history database for the weather conditions in past years. The results will help you decide how hot, cold, wet, or windy it might be!

Date:

Astronomy

Jul. 08, 2013 Rise Set
Actual Time 5:34 AM CDT 9:15 PM CDT
Civil Twilight 4:56 AM CDT 9:54 PM CDT
Nautical Twilight 4:03 AM CDT 10:46 PM CDT
Astronomical Twilight 2:51 AM CDT 11:57 PM CDT
Moon 6:11 AM CDT (7/8) 9:10 PM CDT (7/8)
Length of Visible Light 16h 58m
Length of Day
15h 40m
New Moon, 0% of the Moon is Illuminated
Jul 8
New Moon
Jul 15
First Quarter
Jul 22
Full
Jul 29
Last Quarter
Aug 6
New

Hourly Weather History & Observations

Time (CDT) Temp. Heat Index Dew Point Humidity Pressure Visibility Wind Dir Wind Speed Gust Speed Precip Events Conditions
12:53 AM 64.0 °F - 61.0 °F 90% 29.96 in 10.0 mi Calm Calm - N/A   Clear
1:53 AM 59.0 °F - 57.9 °F 96% 29.96 in 10.0 mi Calm Calm - N/A   Clear
2:53 AM 57.9 °F - 57.0 °F 97% 29.96 in 10.0 mi Calm Calm - N/A   Clear
3:53 AM 57.9 °F - 55.9 °F 93% 29.97 in 10.0 mi Calm Calm - N/A   Clear
4:53 AM 57.9 °F - 55.9 °F 93% 29.98 in 10.0 mi Calm Calm - N/A   Clear
5:53 AM 55.9 °F - 55.0 °F 97% 29.99 in 10.0 mi Calm Calm - N/A   Clear
6:53 AM 64.0 °F - 62.1 °F 93% 29.99 in 10.0 mi Calm Calm - N/A   Clear
7:53 AM 69.1 °F - 62.1 °F 78% 29.99 in 10.0 mi NE 3.5 mph - N/A   Clear
8:53 AM 73.0 °F - 62.1 °F 68% 30.00 in 10.0 mi East 4.6 mph - N/A   Clear
9:53 AM 75.0 °F - 57.9 °F 55% 30.01 in 10.0 mi Calm Calm - N/A   Clear
10:53 AM 77.0 °F - 57.0 °F 50% 30.01 in 10.0 mi SE 5.8 mph - N/A   Clear
11:53 AM 79.0 °F - 57.0 °F 47% 30.01 in 10.0 mi Variable 5.8 mph - N/A   Clear
12:53 PM 80.1 °F 80.1 °F 55.0 °F 42% 30.00 in 10.0 mi NE 3.5 mph - N/A   Clear
1:53 PM 81.0 °F 80.8 °F 55.9 °F 42% 30.00 in 10.0 mi South 4.6 mph - N/A   Clear
2:53 PM 82.0 °F 82.0 °F 57.9 °F 44% 29.99 in 10.0 mi Variable 3.5 mph - N/A   Clear
3:53 PM 82.0 °F 82.1 °F 59.0 °F 45% 29.98 in 10.0 mi West 4.6 mph - N/A   Clear
4:53 PM 82.9 °F 83.3 °F 61.0 °F 47% 29.98 in 10.0 mi WSW 4.6 mph - N/A   Clear
5:53 PM 82.9 °F 82.8 °F 59.0 °F 44% 29.96 in 10.0 mi Calm Calm - N/A   Clear
6:53 PM 82.0 °F 82.7 °F 61.0 °F 49% 29.95 in 10.0 mi South 5.8 mph - N/A   Clear
7:53 PM 81.0 °F 82.2 °F 63.0 °F 54% 29.94 in 10.0 mi Calm Calm - N/A   Clear
8:53 PM 78.1 °F - 64.0 °F 62% 29.93 in 10.0 mi South 3.5 mph - N/A   Clear
9:53 PM 75.9 °F - 63.0 °F 64% 29.94 in 10.0 mi SSE 3.5 mph - N/A   Clear
10:53 PM 72.0 °F - 64.0 °F 76% 29.96 in 10.0 mi SSE 4.6 mph - N/A   Clear
11:53 PM 71.1 °F - 64.0 °F 78% 29.96 in 10.0 mi SE 3.5 mph - N/A   Clear